This demonstration page uses our WeatherBlox Daily Observations layout. Learn more.

Left ArrowRight Arrow

Hourly Observations for April 22, 2021

Temp ( °F °C ) Dew Point ( °F °C ) Humidity (%) Winds ( mph kmh ) Pressure ( in mb ) Visibility ( mi km ) Precip ( " mm )
12:15 am 00:15 Cloudy 34 1 34 1 100 100 Calm 30.16 1021 10 16.0934 N/A
12:35 am 00:35 Cloudy 32 0 32 0 100 100 Calm 30.17 1022 10 16.0934 N/A
12:55 am 00:55 Cloudy 34 1 34 1 100 100 Calm 30.16 1021 10 16.0934 N/A
1:15 am 01:15 Cloudy 32 0 32 0 100 100 Calm 30.17 1022 10 16.0934 N/A
1:35 am 01:35 Cloudy 32 0 32 0 100 100 Calm 30.17 1022 10 16.0934 N/A
1:55 am 01:55 Cloudy 32 0 32 0 100 100 Calm 30.16 1021 10 16.0934 N/A
2:15 am 02:15 Cloudy 34 1 34 1 100 100 Calm 30.15 1021 10 16.0934 N/A
2:35 am 02:35 Cloudy 36 2 36 2 100 100 W 7 11 30.15 1021 10 16.0934 N/A
2:55 am 02:55 Cloudy 36 2 36 2 100 100 WNW 7 11 30.14 1021 10 16.0934 N/A
3:15 am 03:15 Cloudy 34 1 34 1 100 100 Calm 30.14 1021 10 16.0934 N/A
3:35 am 03:35 Cloudy 34 1 34 1 100 100 Calm 30.14 1021 10 16.0934 N/A
3:55 am 03:55 Cloudy 34 1 34 1 100 100 Calm 30.14 1021 10 16.0934 N/A
4:15 am 04:15 Cloudy 36 2 36 2 100 100 Calm 30.14 1021 10 16.0934 N/A
4:35 am 04:35 Cloudy 34 1 34 1 100 100 Calm 30.14 1021 10 16.0934 N/A
4:55 am 04:55 Cloudy 36 2 36 2 100 100 Calm 30.14 1021 10 16.0934 N/A
5:15 am 05:15 Cloudy 36 2 36 2 100 100 W 8 13 30.15 1021 10 16.0934 N/A
5:35 am 05:35 Cloudy 36 2 36 2 100 100 W 8 13 30.15 1021 10 16.0934 N/A
5:55 am 05:55 Cloudy 36 2 36 2 100 100 Calm 30.14 1021 10 16.0934 N/A
6:15 am 06:15 Cloudy 34 1 34 1 100 100 Calm 30.14 1021 10 16.0934 N/A
6:35 am 06:35 Cloudy 34 1 34 1 100 100 Calm 30.14 1021 10 16.0934 N/A
6:55 am 06:55 Mostly Cloudy 34 1 34 1 100 100 Calm 30.15 1021 10 16.0934 N/A
7:15 am 07:15 Mostly Cloudy 32 0 32 0 100 100 Calm 30.16 1021 10 16.0934 N/A
7:35 am 07:35 Cloudy 34 1 34 1 100 100 Calm 30.16 1021 10 16.0934 N/A
7:55 am 07:55 Cloudy 34 1 34 1 100 100 Calm 30.16 1021 10 16.0934 N/A
8:15 am 08:15 Cloudy 36 2 36 2 100 100 Calm 30.17 1022 10 16.0934 N/A
8:35 am 08:35 Cloudy 37 3 37 3 100 100 Calm 30.16 1021 10 16.0934 N/A
8:55 am 08:55 Cloudy 37 3 37 3 100 100 Calm 30.16 1021 10 16.0934 N/A
9:15 am 09:15 Cloudy 41 5 37 3 87 87 Calm 30.17 1022 10 16.0934 N/A
9:35 am 09:35 Mostly Cloudy 41 5 36 2 81 81 Calm 30.17 1022 10 16.0934 N/A
9:55 am 09:55 Partly Cloudy 43 6 36 2 76 76 W 13 20 30.16 1021 10 16.0934 N/A
10:15 am 10:15 Sunny 43 6 32 0 66 66 WNW 14 22 30.17 1022 10 16.0934 N/A
10:35 am 10:35 Sunny 45 7 32 0 61 61 W 20 31 30.17 1022 10 16.0934 N/A
10:55 am 10:55 Sunny 45 7 30 -1 57 57 WNW 14 22 30.18 1022 10 16.0934 N/A
11:15 am 11:15 Sunny 45 7 28 -2 53 53 WNW 17 28 30.19 1022 10 16.0934 N/A
11:35 am 11:35 Sunny 46 8 28 -2 50 50 WNW 21 33 30.19 1022 10 16.0934 N/A
11:55 am 11:55 Partly Cloudy 46 8 30 -1 53 53 WNW 18 30 30.19 1022 10 16.0934 N/A
12:15 pm 12:15 Mostly Cloudy 45 7 27 -3 49 49 W 20 31 30.2 1023 10 16.0934 N/A
12:35 pm 12:35 Cloudy 48 9 30 -1 50 50 W 17 28 30.19 1022 10 16.0934 N/A
12:55 pm 12:55 Mostly Cloudy 46 8 28 -2 50 50 WNW 20 31 30.19 1022 10 16.0934 N/A
1:16 pm 13:16 Mostly Cloudy 46 8 28 -2 50 50 WNW 14 22 30.19 1022 10 16.0934 N/A
1:35 pm 13:35 Cloudy 46 8 28 -2 50 50 W 16 26 30.19 1022 10 16.0934 N/A
1:55 pm 13:55 Cloudy 48 9 30 -1 50 50 W 13 20 30.17 1022 10 16.0934 N/A
2:15 pm 14:15 Cloudy 48 9 30 -1 50 50 W 14 22 30.17 1022 10 16.0934 N/A
2:35 pm 14:35 Cloudy 48 9 30 -1 50 50 WNW 12 19 30.17 1022 10 16.0934 N/A
2:55 pm 14:55 Cloudy 46 8 30 -1 53 53 W 21 33 30.18 1022 10 16.0934 N/A
3:15 pm 15:15 Mostly Cloudy 48 9 30 -1 50 50 WNW 13 20 30.17 1022 10 16.0934 N/A
3:35 pm 15:35 Cloudy 50 10 30 -1 47 47 WNW 13 20 30.17 1022 10 16.0934 N/A
3:55 pm 15:55 Mostly Cloudy 50 10 30 -1 47 47 W 17 28 30.15 1021 10 16.0934 N/A
4:15 pm 16:15 Cloudy 48 9 30 -1 50 50 W 16 26 30.15 1021 10 16.0934 N/A
4:35 pm 16:35 Mostly Cloudy 52 11 32 0 47 47 WNW 15 24 30.14 1021 10 16.0934 N/A
4:55 pm 16:55 Mostly Cloudy 50 10 32 0 50 50 W 17 28 30.13 1020 10 16.0934 N/A
5:15 pm 17:15 Partly Cloudy 50 10 32 0 50 50 W 14 22 30.13 1020 10 16.0934 N/A
5:35 pm 17:35 Partly Cloudy 52 11 32 0 47 47 W 14 22 30.13 1020 10 16.0934 N/A
5:55 pm 17:55 Partly Cloudy 52 11 32 0 47 47 W 12 19 30.13 1020 10 16.0934 N/A
6:15 pm 18:15 Partly Cloudy 52 11 32 0 47 47 W 14 22 30.13 1020 10 16.0934 N/A
6:35 pm 18:35 Partly Cloudy 52 11 32 0 47 47 WNW 15 24 30.13 1020 10 16.0934 N/A
6:55 pm 18:55 Partly Cloudy 50 10 32 0 50 50 W 10 17 30.13 1020 10 16.0934 N/A
7:15 pm 19:15 Partly Cloudy 50 10 32 0 50 50 W 14 22 30.13 1020 10 16.0934 N/A
7:35 pm 19:35 Partly Cloudy 50 10 32 0 50 50 W 9 15 30.13 1020 10 16.0934 N/A
7:55 pm 19:55 Sunny 48 9 32 0 54 54 W 7 11 30.13 1020 10 16.0934 N/A
8:16 pm 20:16 Sunny 46 8 32 0 57 57 WSW 8 13 30.14 1021 10 16.0934 N/A
8:35 pm 20:35 Clear 45 7 32 0 61 61 Calm 30.14 1021 10 16.0934 N/A
8:55 pm 20:55 Clear 41 5 32 0 70 70 Calm 30.15 1021 10 16.0934 N/A
9:15 pm 21:15 Clear 41 5 32 0 70 70 Calm 30.15 1021 10 16.0934 N/A
9:35 pm 21:35 Clear 41 5 32 0 70 70 Calm 30.16 1021 10 16.0934 N/A
9:55 pm 21:55 Clear 41 5 32 0 70 70 Calm 30.16 1021 10 16.0934 N/A
10:15 pm 22:15 Clear 41 5 32 0 70 70 Calm 30.17 1022 10 16.0934 N/A
10:35 pm 22:35 Clear 41 5 32 0 70 70 Calm 30.17 1022 10 16.0934 N/A
10:55 pm 22:55 Clear 41 5 32 0 70 70 Calm 30.17 1022 10 16.0934 N/A
11:16 pm 23:16 Clear 39 4 32 0 75 75 SSW 6 9 30.17 1022 10 16.0934 N/A
11:35 pm 23:35 Clear 41 5 32 0 70 70 Calm 30.16 1021 10 16.0934 N/A
11:55 pm 23:55 Clear 41 5 30 -1 66 66 Calm 30.16 1021 10 16.0934 N/A

Powered by AerisWeather